Lexington Weather

Lexington, Massachusetts, USA

47°F
9/19/2020 8:58am 
  • Lexington Conditions: Clear
  • Temperature: 46.9°F / 8.3°CWarmer 3.4°F than last hour.
  • Dew Point: 36.1°FIncreased 0.3°Fsince last hour.
  • Relative Humidity: 66%Decreased 8.0% since last hour.
  • Wind: Wind from ENE ENE Calm, 10-min avg: 1 mph, gust: 2 mph
  • Barometer: 30.26 inRising 0.02  inHg/hr Rising Slowly
  • Visibility: 10 miles
  • Rain Today: 0.00 in
  •   
Southeast Middlesex County - Special Weather Statement
 - SEE ALL NEARBY ALERTS -

Regional Weather Roundup
for Boston / Norton, MA

        
000
ASUS41 KBOX 170804
RWRBOX

REGIONAL WEATHER ROUNDUP
NATIONAL WEATHER SERVICE BOSTON/NORTON MA
400 AM EDT THU SEP 17 2020

NOTE:  "FAIR" INDICATES FEW OR NO CLOUDS BELOW 12,000 FEET WITH NO 
SIGNIFICANT WEATHER AND/OR OBSTRUCTIONS TO VISIBILITY.

MAZALL-170900-
EASTERN MASSACHUSETTS
  
CITY           SKY/WX    TMP DP  RH WIND       PRES   REMARKS
BOSTON         PTCLDY    60  57  89 SW9       30.05F                  
BEVERLY        CLEAR     61  57  87 SW7       30.03F                  
LAWRENCE       CLEAR     58  56  93 S7        30.05F                  
BEDFORD        CLEAR     57  55  93 S6        30.03F                  
BLUE HILL        N/A     58  57  97 SW14      30.04F                  
NORWOOD        CLEAR     58  54  86 S3        30.05S                  
MARSHFIELD     CLOUDY    63  63 100 CALM      30.05F                  
PLYMOUTH       MOCLDY    64  62  93 SW7       30.05F                  
TAUNTON        MOCLDY    66  62  87 VRB5      30.05F                  
NEW BEDFORD    PTCLDY    67  63  87 SW9       30.05F                  
$$

MAZALL-170900-
CAPE COD AND THE ISLANDS
  
CITY           SKY/WX    TMP DP  RH WIND       PRES   REMARKS
FALMOUTH       PTCLDY    64  63  94 SW12      30.06F                  
HYANNIS        CLEAR     68  63  84 SW13      30.05F                  
CHATHAM        CLEAR     66  63  90 SW6       30.08F                  
PROVINCETOWN   MOCLDY    64  62  93 S9        30.06F                  
NANTUCKET      PTCLDY    67  64  90 SW9       30.08F                  
MARTHAS VNYRD  CLEAR     64  63  96 SW5       30.07F                  
$$
 
MAZALL-170900-
CENTRAL AND WESTERN MASSACHUSETTS
  
CITY           SKY/WX    TMP DP  RH WIND       PRES   REMARKS
WORCESTER      CLEAR     58  53  84 SW14      30.05F                  
FITCHBURG      CLEAR     60  53  77 VRB7      30.03F                  
ORANGE         CLEAR     50  50 100 CALM      30.05F                  
SPRINGFIELD    CLEAR     56  54  95 S7        30.04F                  
WESTFIELD      CLEAR     55  54  96 SW8       30.04F                  
NORTH ADAMS    CLEAR     51  49  92 CALM      30.04S                  
PITTSFIELD     CLEAR     55  51  86 SW7       30.04S                  
$$
 
RIZALL-170900-
RHODE ISLAND
  
CITY           SKY/WX    TMP DP  RH WIND       PRES   REMARKS
PROVIDENCE     CLEAR     60  60 100 S6        30.06F                  
NEWPORT        CLEAR     67  61  81 VRB3      30.06F                  
BLOCK ISLAND   CLEAR     65  61  87 W8        30.08F                  
SMITHFIELD     CLEAR     59  59 100 SW5       30.07S                  
WESTERLY       CLEAR     66  58  75 SW5       30.07F                  
$$
 
CTZALL-170900-
CONNECTICUT
  
CITY           SKY/WX    TMP DP  RH WIND       PRES   REMARKS
BRADLEY INTL   MOCLDY    53  51  93 S6        30.05F                  
HARTFORD       PTCLDY    60  55  83 S3        30.06S                  
BRIDGEPORT     PTCLDY    64  58  80 NW7       30.07S                  
DANBURY        CLEAR     52  51  97 CALM      30.09S                  
GROTON         CLEAR     67  55  65 W10G18    30.06F                  
NEW HAVEN      MOCLDY    70  61  73 SW5       30.06F                  
CHESTER        NOT AVBL                                               
MERIDEN        PTCLDY    55  53  93 CALM      30.07S                  
WILLIMANTIC    CLOUDY    52  50  93 CALM      30.07F                  
OXFORD         CLEAR     58  56  93 VRB6      30.08F                  
$$

MEZ002-015-021-024-NHZ003-005-008-011-012-014-VTZ005-008-170900-
NORTHERN NEW ENGLAND
  
CITY           SKY/WX    TMP DP  RH WIND       PRES   REMARKS
PORTLAND ME    CLEAR     60  55  83 SW8       29.99S                  
BANGOR ME      CLEAR     59  53  80 S10       29.94S                  
CONCORD NH     CLEAR     54  51  90 SE5       30.01S                  
MANCHESTER NH  CLEAR     59  54  83 S5        30.00F                  
NASHUA NH      CLEAR     55  55 100 VRB3      30.03F                  
PORTSMOUTH NH  PTCLDY    58  53  83 SW8       30.00F                  
JAFFREY NH     CLEAR     57  53  86 SW8       30.03F                  
KEENE NH       CLEAR     49  49 100 CALM      30.04                   
BURLINGTON VT  CLOUDY    61  49  64 S15       29.95R                  
MT. WASHINGTON MOCLDY    41  37  87 W51G56      N/A  WCI  27          
$$

NYZ052-076-170900-
EASTERN NEW YORK
  
CITY           SKY/WX    TMP DP  RH WIND       PRES   REMARKS
ALBANY         MOCLDY    52  52 100 S7        30.03S                  
NEW YORK CITY  CLOUDY    67  58  72 SW7       30.06F                  
$$
 
ANZALL-170900-
MARINE OBSERVATIONS
  
STATION/POSITION TIME  TEMP    WIND        PRES    VSBY  WAVE
                       AIR SEA DIR/SP/G                  HT/PER
                 (UTC) (F)     (DEG/KT/KT) (MB)    (MI)  (FT/S)
BOSTON BUOY      0750   63 64  190/ 10/ 12 1016.6F         2/12
BUZZARDS BAY     0700          220/ 23/ 27 1019.1F
NANTUCKET SOUND  0740      69  210/ 14/ 17   N/A
MASS BAY-STELLWA 0704   63     240/ 12/ 14 1015.5F  1 7/8  3/ 4
ISLE OF SHOALS   0700   61     220/ 18/ 20 1016.2F
S OF BLOCK IS    0726      70                N/A           4/11
$$

......................KEY.........................
  SKY/WX - SKY CONDITION/PRESENT WEATHER
  TMP    - TEMPERATURE IN FAHRENHEIT
  DWPT   - DEWPOINT IN FAHRENHEIT
  RH     - RELATIVE HUMIDITY IN PERCENT
  WIND   - DIRECTION AND SPEED IN MPH
  PRES   - MEAN SEA LEVEL PRESSURE IN INCHES OF HG
  WCI    - WIND CHILL INDEX
  VSB    - VISIBILITY IN MILES
  HX     - HEAT INDEX
  TC     - TEMPERATURE IN CELSIUS
  VRB    - VARIABLE WIND DIRECTION
  N/A    - NOT AVAILABLE
  
      

Other recent Regional Weather Roundups

Sat Sep 19, 8:04am

Sat Sep 19, 7:04am

Sat Sep 19, 6:04am

Sat Sep 19, 5:04am

Sat Sep 19, 4:04am

Sat Sep 19, 3:04am

Sat Sep 19, 2:04am

Sat Sep 19, 1:04am

Sat Sep 19, 12:04am

Fri Sep 18, 11:05pm

Fri Sep 18, 10:04pm

Fri Sep 18, 9:04pm

Fri Sep 18, 8:04pm

Fri Sep 18, 7:04pm

Fri Sep 18, 6:04pm

Fri Sep 18, 5:05pm

Fri Sep 18, 4:04pm

Fri Sep 18, 3:05pm

Fri Sep 18, 2:04pm

Fri Sep 18, 1:04pm

Fri Sep 18, 12:04pm

Fri Sep 18, 11:05am

Fri Sep 18, 10:05am

Fri Sep 18, 9:04am

Fri Sep 18, 8:04am

Fri Sep 18, 7:04am

Fri Sep 18, 6:04am

Fri Sep 18, 5:04am

Fri Sep 18, 4:04am

Fri Sep 18, 3:04am

Fri Sep 18, 2:04am

Fri Sep 18, 1:04am

Fri Sep 18, 12:04am

Thu Sep 17, 11:05pm

Thu Sep 17, 10:04pm

Thu Sep 17, 9:04pm

Thu Sep 17, 8:05pm

Thu Sep 17, 7:04pm

Thu Sep 17, 6:04pm

Thu Sep 17, 5:04pm

Thu Sep 17, 4:04pm

Thu Sep 17, 3:05pm

Thu Sep 17, 2:04pm

Thu Sep 17, 1:04pm

Thu Sep 17, 12:04pm

Thu Sep 17, 11:04am

Thu Sep 17, 10:04am

Thu Sep 17, 9:04am

Thu Sep 17, 8:04am

Thu Sep 17, 7:04am

Thu Sep 17, 6:04am

Thu Sep 17, 5:04am

Thu Sep 17, 3:04am

Thu Sep 17, 2:05am

Thu Sep 17, 1:05am

Thu Sep 17, 12:04am

Wed Sep 16, 11:04pm

Wed Sep 16, 10:04pm

Wed Sep 16, 9:04pm

Wed Sep 16, 8:05pm

Wed Sep 16, 7:04pm

Wed Sep 16, 6:04pm

Wed Sep 16, 5:04pm

Wed Sep 16, 4:04pm

Wed Sep 16, 3:04pm

Wed Sep 16, 2:04pm

Wed Sep 16, 1:04pm

Wed Sep 16, 12:04pm

Wed Sep 16, 11:04am

Wed Sep 16, 10:04am

Wed Sep 16, 9:04am

Wed Sep 16, 8:04am

Wed Sep 16, 7:04am

Wed Sep 16, 6:04am

Wed Sep 16, 5:04am

Wed Sep 16, 4:04am

Wed Sep 16, 3:04am

Wed Sep 16, 2:04am

Wed Sep 16, 1:04am

Wed Sep 16, 12:05am

Tue Sep 15, 11:04pm

Tue Sep 15, 10:04pm

Tue Sep 15, 9:04pm

Tue Sep 15, 8:04pm

Tue Sep 15, 7:04pm

Tue Sep 15, 6:04pm

Tue Sep 15, 5:04pm

Tue Sep 15, 4:05pm

Tue Sep 15, 3:04pm

Tue Sep 15, 2:04pm

Tue Sep 15, 1:04pm

Tue Sep 15, 12:04pm

Tue Sep 15, 11:04am

Tue Sep 15, 10:04am

Tue Sep 15, 9:04am

Tue Sep 15, 8:04am

Tue Sep 15, 7:04am

Tue Sep 15, 6:04am

Tue Sep 15, 5:04am

Tue Sep 15, 4:04am

Tue Sep 15, 3:04am

Tue Sep 15, 2:04am

Tue Sep 15, 1:04am

Tue Sep 15, 12:05am

Mon Sep 14, 11:04pm

Mon Sep 14, 10:04pm

Mon Sep 14, 9:04pm

Mon Sep 14, 8:04pm

Mon Sep 14, 7:04pm

Mon Sep 14, 6:04pm

Mon Sep 14, 5:04pm

Mon Sep 14, 4:05pm

Mon Sep 14, 3:04pm

Mon Sep 14, 2:05pm

Mon Sep 14, 1:04pm

Mon Sep 14, 12:04pm

Mon Sep 14, 11:04am

Mon Sep 14, 10:05am

Mon Sep 14, 9:04am

Mon Sep 14, 8:04am

Mon Sep 14, 7:04am

Mon Sep 14, 6:04am

Mon Sep 14, 5:04am

Mon Sep 14, 4:04am

Mon Sep 14, 3:04am

Mon Sep 14, 2:04am

Mon Sep 14, 1:04am

Mon Sep 14, 12:04am

Sun Sep 13, 11:05pm

Sun Sep 13, 10:04pm

Sun Sep 13, 9:04pm

Sun Sep 13, 8:04pm

Sun Sep 13, 7:05pm

Sun Sep 13, 6:05pm

Sun Sep 13, 5:05pm

Sun Sep 13, 4:04pm

Sun Sep 13, 3:04pm

Sun Sep 13, 2:04pm

Sun Sep 13, 1:04pm

Sun Sep 13, 12:04pm

Sun Sep 13, 11:05am

Sun Sep 13, 10:04am

Sun Sep 13, 9:04am

Sun Sep 13, 8:04am

Sun Sep 13, 7:04am

Sun Sep 13, 6:04am

Sun Sep 13, 5:04am

Sun Sep 13, 4:04am

Sun Sep 13, 3:04am

Sun Sep 13, 2:04am

Sun Sep 13, 1:04am

Sun Sep 13, 12:04am

Sat Sep 12, 11:04pm

Sat Sep 12, 10:04pm

Sat Sep 12, 9:04pm

Sat Sep 12, 8:04pm

Sat Sep 12, 7:05pm

Sat Sep 12, 6:04pm

Sat Sep 12, 5:04pm

Sat Sep 12, 4:05pm

Sat Sep 12, 3:04pm

Sat Sep 12, 2:04pm

Sat Sep 12, 1:05pm

Sat Sep 12, 12:04pm

Sat Sep 12, 11:04am

Sat Sep 12, 10:04am

Sat Sep 12, 9:04am

Meta data:

ID: 67cc9b01-05f2-44ae-b9fb-2dd3d80f55cf
Link: https://api.weather.gov/products/67cc9b01-05f2-44ae-b9fb-2dd3d80f55cf